• In Portugal
  • List of Countries
  • For 7 days
  • Water Temperature
  • Satellite Maps
  • Weather Map
  • Weather Widgets
  • user-avatar
    Login

    Hourly Weather İzmir

    Today, 24 February, Saturday

    Time Temperature Precipitation Wind Pressure Humidity
    00:00 +9°C° 0 mm 2 mps 748 mmHg 90%
    01:00 +9°C° 0 mm 1 mps 747 mmHg 90%
    02:00 +9°C° 0 mm 1 mps 747 mmHg 91%
    03:00 +9°C° 0 mm 1 mps 747 mmHg 91%
    04:00 +8°C° 0 mm 2 mps 747 mmHg 92%
    05:00 +8°C° 0 mm 2 mps 747 mmHg 92%
    06:00 +8°C° 0 mm 2 mps 747 mmHg 91%
    07:00 +9°C° 0 mm 2 mps 747 mmHg 90%
    08:00 +9°C° 0 mm 2 mps 747 mmHg 89%
    09:00 +10°C° 0.4 mm 2 mps 746 mmHg 86%
    10:00 +12°C° 0.4 mm 2 mps 746 mmHg 84%
    11:00 +12°C° 0.4 mm 3 mps 746 mmHg 82%
    12:00 +12°C° 1.1 mm 3 mps 745 mmHg 80%
    13:00 +13°C° 1.1 mm 4 mps 744 mmHg 79%
    14:00 +13°C° 1.1 mm 5 mps 743 mmHg 78%
    15:00 +12°C° 3.7 mm 4 mps 743 mmHg 82%
    16:00 +11°C° 3.7 mm 4 mps 743 mmHg 87%
    17:00 +11°C° 3.7 mm 4 mps 742 mmHg 92%
    18:00 +10°C° 0.8 mm 3 mps 742 mmHg 92%
    19:00 +10°C° 0.8 mm 3 mps 743 mmHg 91%
    20:00 +9°C° 0.8 mm 3 mps 743 mmHg 91%
    21:00 +9°C° 0.7 mm 3 mps 743 mmHg 91%
    22:00 +9°C° 0.7 mm 3 mps 743 mmHg 91%
    23:00 +9°C° 0.7 mm 3 mps 744 mmHg 91%

    Tomorrow, 25 February, Sunday

    Time Temperature Precipitation Wind Pressure Humidity
    00:00 +8°C° 1 mm 4 mps 744 mmHg 91%
    01:00 +8°C° 1 mm 4 mps 744 mmHg 92%
    02:00 +8°C° 1 mm 4 mps 744 mmHg 92%
    03:00 +8°C° 0.5 mm 4 mps 744 mmHg 92%
    04:00 +9°C° 0.5 mm 3 mps 745 mmHg 92%
    05:00 +9°C° 0.5 mm 3 mps 745 mmHg 92%
    06:00 +9°C° 0.1 mm 3 mps 745 mmHg 91%
    07:00 +9°C° 0.1 mm 3 mps 746 mmHg 89%
    08:00 +9°C° 0.1 mm 3 mps 747 mmHg 88%
    09:00 +10°C° 0 mm 3 mps 747 mmHg 82%
    10:00 +10°C° 0 mm 3 mps 747 mmHg 76%
    11:00 +11°C° 0 mm 3 mps 747 mmHg 70%
    12:00 +12°C° 0 mm 3 mps 747 mmHg 67%
    13:00 +14°C° 0 mm 2 mps 747 mmHg 64%
    14:00 +14°C° 0 mm 2 mps 747 mmHg 60%
    15:00 +14°C° 0 mm 2 mps 747 mmHg 62%
    16:00 +13°C° 0 mm 2 mps 747 mmHg 65%
    17:00 +12°C° 0 mm 3 mps 747 mmHg 67%
    18:00 +12°C° 0 mm 2 mps 747 mmHg 71%
    19:00 +9°C° 0 mm 2 mps 747 mmHg 75%
    20:00 +8°C° 0 mm 2 mps 747 mmHg 80%
    21:00 +8°C° 0 mm 2 mps 747 mmHg 81%
    22:00 +7°C° 0 mm 2 mps 747 mmHg 83%
    23:00 +7°C° 0 mm 2 mps 747 mmHg 84%

    Day after tomorrow, 26 February, Monday

    Time Temperature Precipitation Wind Pressure Humidity
    00:00 +7°C° 0 mm 2 mps 747 mmHg 85%
    01:00 +6°C° 0 mm 2 mps 746 mmHg 86%
    02:00 +6°C° 0 mm 2 mps 746 mmHg 88%
    03:00 +6°C° 0 mm 2 mps 746 mmHg 88%
    04:00 +6°C° 0 mm 2 mps 745 mmHg 89%
    05:00 +6°C° 0 mm 2 mps 745 mmHg 89%
    06:00 +6°C° 0 mm 2 mps 744 mmHg 88%
    07:00 +7°C° 0 mm 3 mps 744 mmHg 86%
    08:00 +7°C° 0 mm 3 mps 744 mmHg 84%
    09:00 +9°C° 0 mm 3 mps 743 mmHg 77%
    10:00 +11°C° 0 mm 4 mps 743 mmHg 70%
    11:00 +13°C° 0 mm 5 mps 742 mmHg 62%
    12:00 +14°C° 0 mm 5 mps 741 mmHg 59%
    13:00 +15°C° 0 mm 6 mps 740 mmHg 57%
    14:00 +16°C° 0 mm 6 mps 739 mmHg 54%
    15:00 +14°C° 2.6 mm 6 mps 739 mmHg 64%
    16:00 +13°C° 2.6 mm 5 mps 738 mmHg 75%
    17:00 +10°C° 2.6 mm 5 mps 738 mmHg 85%
    18:00 +11°C° 1 mm 4 mps 738 mmHg 87%
    19:00 +10°C° 1 mm 4 mps 739 mmHg 90%
    20:00 +10°C° 1 mm 4 mps 739 mmHg 92%
    21:00 +10°C° 0.6 mm 4 mps 740 mmHg 91%
    22:00 +9°C° 0.6 mm 5 mps 740 mmHg 90%
    23:00 +9°C° 0.6 mm 6 mps 741 mmHg 89%

    27 February, Tuesday

    Time Temperature Precipitation Wind Pressure Humidity
    00:00 +9°C° 0.3 mm 7 mps 741 mmHg 88%
    01:00 +8°C° 0.3 mm 7 mps 742 mmHg 87%
    02:00 +7°C° 0.3 mm 8 mps 742 mmHg 87%
    03:00 +7°C° 0.2 mm 8 mps 743 mmHg 87%
    04:00 +8°C° 0.2 mm 7 mps 743 mmHg 87%
    05:00 +8°C° 0.2 mm 6 mps 744 mmHg 87%
    06:00 +8°C° 0 mm 5 mps 745 mmHg 86%
    07:00 +8°C° 0 mm 4 mps 746 mmHg 85%
    08:00 +8°C° 0 mm 2 mps 747 mmHg 84%
    09:00 +9°C° 0 mm 2 mps 747 mmHg 78%
    10:00 +10°C° 0 mm 2 mps 748 mmHg 72%
    11:00 +12°C° 0 mm 2 mps 748 mmHg 66%
    12:00 +12°C° 0 mm 3 mps 748 mmHg 63%
    13:00 +13°C° 0 mm 3 mps 748 mmHg 60%
    14:00 +14°C° 0 mm 3 mps 747 mmHg 56%
    15:00 +14°C° 0 mm 3 mps 748 mmHg 59%
    16:00 +13°C° 0 mm 3 mps 748 mmHg 61%
    17:00 +13°C° 0 mm 3 mps 748 mmHg 64%
    18:00 +12°C° 0 mm 3 mps 748 mmHg 69%
    19:00 +11°C° 0 mm 3 mps 748 mmHg 73%
    20:00 +10°C° 0 mm 3 mps 749 mmHg 77%
    21:00 +10°C° 0 mm 3 mps 749 mmHg 78%
    22:00 +10°C° 0 mm 3 mps 749 mmHg 79%
    23:00 +9°C° 0 mm 3 mps 749 mmHg 79%

    28 February, Wednesday

    Time Temperature Precipitation Wind Pressure Humidity
    00:00 +9°C° 0 mm 3 mps 749 mmHg 79%
    01:00 +8°C° 0 mm 4 mps 749 mmHg 79%
    02:00 +8°C° 0 mm 4 mps 749 mmHg 78%
    03:00 +8°C° 0.1 mm 4 mps 748 mmHg 78%
    04:00 +8°C° 0.1 mm 4 mps 748 mmHg 78%
    05:00 +8°C° 0.1 mm 4 mps 748 mmHg 78%
    06:00 +8°C° 0.2 mm 4 mps 748 mmHg 79%
    07:00 +10°C° 0.2 mm 4 mps 748 mmHg 79%
    08:00 +10°C° 0.2 mm 4 mps 748 mmHg 79%
    09:00 +10°C° 0 mm 5 mps 748 mmHg 74%
    10:00 +13°C° 0 mm 6 mps 748 mmHg 70%
    11:00 +14°C° 0 mm 6 mps 748 mmHg 65%
    12:00 +15°C° 0.1 mm 6 mps 748 mmHg 63%
    13:00 +16°C° 0.1 mm 7 mps 748 mmHg 62%
    14:00 +17°C° 0.1 mm 7 mps 748 mmHg 61%
    15:00 +16°C° 0.6 mm 6 mps 748 mmHg 67%
    16:00 +15°C° 0.6 mm 6 mps 748 mmHg 74%
    17:00 +14°C° 0.6 mm 5 mps 749 mmHg 81%
    18:00 +14°C° 0.4 mm 4 mps 749 mmHg 83%
    19:00 +13°C° 0.4 mm 4 mps 750 mmHg 85%
    20:00 +13°C° 0.4 mm 4 mps 750 mmHg 88%
    21:00 +13°C° 0.1 mm 3 mps 751 mmHg 87%
    22:00 +13°C° 0.1 mm 3 mps 751 mmHg 87%
    23:00 +12°C° 0.1 mm 3 mps 752 mmHg 87%

    1 March, Thursday

    Time Temperature Precipitation Wind Pressure Humidity
    00:00 +12°C° 0.2 mm 3 mps 752 mmHg 87%
    01:00 +13°C° 0.2 mm 2 mps 752 mmHg 87%
    02:00 +13°C° 0.2 mm 2 mps 752 mmHg 87%
    03:00 +13°C° 0.1 mm 2 mps 753 mmHg 88%
    04:00 +13°C° 0.1 mm 2 mps 753 mmHg 88%
    05:00 +13°C° 0.1 mm 1 mps 753 mmHg 89%
    06:00 +13°C° 0 mm 1 mps 754 mmHg 87%
    07:00 +13°C° 0 mm 2 mps 754 mmHg 86%
    08:00 +13°C° 0 mm 2 mps 754 mmHg 85%
    09:00 +14°C° 0 mm 1 mps 755 mmHg 80%
    10:00 +16°C° 0 mm 1 mps 755 mmHg 76%
    11:00 +18°C° 0 mm 1 mps 755 mmHg 71%
    12:00 +18°C° 0 mm 1 mps 755 mmHg 69%
    13:00 +19°C° 0 mm 1 mps 754 mmHg 68%
    14:00 +19°C° 0 mm 1 mps 754 mmHg 66%
    15:00 +19°C° 0 mm 1 mps 754 mmHg 67%
    16:00 +19°C° 0 mm 1 mps 754 mmHg 69%
    17:00 +19°C° 0 mm 1 mps 754 mmHg 70%
    18:00 +18°C° 0 mm 1 mps 754 mmHg 75%
    19:00 +15°C° 0 mm 1 mps 754 mmHg 81%
    20:00 +13°C° 0 mm 0 mps 755 mmHg 86%
    21:00 +13°C° 0 mm 0 mps 755 mmHg 87%
    22:00 +12°C° 0 mm 0 mps 755 mmHg 88%
    23:00 +12°C° 0 mm 0 mps 755 mmHg 89%
    Show more